Location: Barruelo
(41.2448°N, 3.8231°W)
Time: 20:46:38
(UTC+00:00)

Cosmos 2333 Rocket - Pass Details

Date: 11 December 2025
Orbit: 837 x 865 km, 70.8° (Epoch: 12 January)

Event Time Altitude Azimuth Distance (km) Brightness Sun altitude
Rises 18:47:53 0° 165° (SSE) 3,408 5.3 -22.1°
Reaches altitude 10° 18:50:48 10° 151° (SSE) 2,482 4.5 -22.6°
Enters shadow 18:51:19 12° 147° (SSE) 2,338 4.3 -22.7°
